Flag for Germany Weather past 2 weeks in Warendorf, North Rhine-Westphalia, Germany

Now
48 °F

Clear.


Feels Like: 48 °F
Forecast: 44 / 59 °F
Wind: 2 mph from West

Location: Muenster / Osnabrueck

Current Time: May 25, 2015 at 1:45:41 AM

Latest Report: May 25, 2015 at 1:20 AM


Visibility: 10 mi

Pressure: 30.01 "Hg

Humidity: 87%

Dew point: 45 °F

Location of WarendorfLocation

Historic Weather in Warendorf — Graph

°F

Warendorf temperature yesterday

Maximum temperature yesterday: 68 °F (at 5:50 PM)
Minimum temperature yesterday: 41 °F (at 2:50 AM)
Average temperature yesterday: 55 °F

Past Weeks' High & Low Weather Summary

 TemperatureHumidityPressure
High77 °F (May 11, 3:20 PM)100% (May 13, 6:20 AM)30.33 "Hg (May 13, 6:20 AM)
Low37 °F (May 16, 5:20 AM)32% (May 11, 3:50 PM)29.59 "Hg (May 18, 7:20 PM)
Average54 °F69%30.07 "Hg
* Reported May 10 12:20 AM — May 25 12:50 AM, Warendorf, Weather by CustomWeather, © 2015

Note: Actual official high and low records may vary slightly from our data, if they occured in-between our weather recording intervals... More about our weather records

Advertising

Warendorf weather history for previous 24 hours

 ConditionsComfort  
Time TempWeatherWind HumidityBarometerVisibility
12:50 AM
Mon, May 25
50 °FClear.2 mph82%30.01 "Hg10 mi
12:20 AM50 °FClear.1 mph82%30.01 "Hg10 mi
11:20 PM
Sun, May 24
52 °FClear.2 mph77%30.01 "Hg10 mi
10:50 PM52 °FClear.2 mph77%30.01 "Hg10 mi
10:20 PM55 °FSunny.2 mph67%30.01 "Hg10 mi
9:50 PM57 °FSunny.2 mph63%30.01 "Hg10 mi
9:20 PM59 °FSunny.5 mph59%30.01 "Hg10 mi
8:50 PM64 °FSunny.7 mph46%30.01 "Hg10 mi
8:20 PM64 °FSunny.7 mph46%30.01 "Hg10 mi
7:50 PM66 °FSunny.8 mph43%30.01 "Hg10 mi
7:20 PM66 °FSunny.7 mph43%30.01 "Hg10 mi
6:50 PM66 °FPassing clouds.6 mph43%30.04 "HgN/A
6:20 PM66 °FSunny.5 mph46%30.04 "Hg10 mi
5:50 PM68 °FPartly sunny.5 mph46%30.04 "HgN/A
5:20 PM64 °FPartly sunny.7 mph46%30.04 "HgN/A
4:50 PM66 °FPartly sunny.5 mph46%30.07 "HgN/A
4:20 PM64 °FPartly sunny.5 mph49%30.07 "HgN/A
3:50 PM64 °FPartly sunny.5 mph52%30.07 "HgN/A
3:20 PM63 °FPartly sunny.2 mph52%30.07 "HgN/A
2:50 PM63 °FPartly sunny.5 mph52%30.09 "HgN/A
2:20 PM63 °FPartly sunny.3 mph49%30.09 "HgN/A
1:50 PM61 °FPartly sunny.5 mph55%30.09 "HgN/A
1:20 PM63 °FPartly sunny.3 mph52%30.09 "HgN/A
12:50 PM61 °FBroken clouds.7 mph55%30.09 "HgN/A
12:20 PM61 °FBroken clouds.2 mph55%30.09 "HgN/A
11:50 AM59 °FBroken clouds.3 mph59%30.12 "HgN/A
11:20 AM57 °FBroken clouds.3 mph59%30.12 "HgN/A
10:50 AM59 °FPartly sunny.2 mph59%30.12 "HgN/A
10:20 AM57 °FSunny.1 mph59%30.12 "Hg10 mi
9:50 AM54 °FSunny.2 mph72%30.12 "Hg10 mi
9:20 AM54 °FPartly sunny.1 mph67%30.15 "HgN/A
8:50 AM54 °FPartly sunny.3 mph67%30.15 "HgN/A
8:20 AM52 °FPartly sunny.6 mph77%30.15 "HgN/A
7:50 AM50 °FPartly sunny.5 mph76%30.15 "HgN/A
7:20 AM46 °FPartly sunny.3 mph87%30.15 "HgN/A
6:50 AM46 °FPartly sunny.3 mph82%30.15 "HgN/A
6:20 AM46 °FPassing clouds.2 mph87%30.15 "HgN/A
5:50 AM45 °FPassing clouds.1 mph87%30.15 "HgN/A
5:20 AM45 °FPassing clouds.2 mph87%30.15 "HgN/A
4:50 AM45 °FPassing clouds.1 mph87%30.15 "HgN/A
4:20 AM43 °FPassing clouds.No wind93%30.15 "HgN/A
3:50 AM43 °FPassing clouds.1 mph93%30.15 "HgN/A
3:20 AM41 °FPassing clouds.1 mph100%30.15 "HgN/A
2:50 AM41 °FClear.2 mph93%30.18 "Hg10 mi
2:20 AM43 °FClear.1 mph93%30.18 "Hg10 mi
1:50 AM43 °FClear.2 mph93%30.18 "Hg10 mi
1:20 AM45 °FClear.3 mph87%30.18 "Hg10 mi
Weather by CustomWeather, © 2015

See weather overviewHow to use our weather pages